Tracking 26951 objects as of 4-Feb-2023
HD Live streaming from Space Station
objects crossing your sky now

STARLINK-3582

Track STARLINK-3582 now!
10-day predictions
STARLINK-3582 is classified as:


NORAD ID: 51873
Int'l Code: 2022-022X
Perigee: 545.9 km
Apogee: 547.8 km
Inclination: 53.2 °
Period: 95.4 minutes
Semi major axis: 6917 km
RCS: Unknown
Launch date: March 3, 2022
Source: United States (US)
Launch site: AIR FORCE EASTERN TEST RANGE (AFETR)
Your satellite tracking list
Your tracking list is empty




NASA's NSSDC Master Catalog

Two Line Element Set (TLE):
1 51873U 22022X   23034.41526427  .00002233  00000-0  15831-3 0  9996
2 51873  53.2162  43.1225 0001388  96.4512 263.6639 15.08844753 52488
Source of the keplerian elements: AFSPC